When you browse on this site, cookies collect data to enhance your experience and personalize the content and advertising you see.
Visit our Privacy Policy to learn more. By continuing to use the site, you agree to this use of cookies and data.
  • In Hungary
  • List of Countries
  • For 7 days
  • Water Temperature
  • Satellite Maps
  • Weather Map
  • News
  • Weather Widgets
  • user-avatar
    Login

    Hourly Weather Sarbogard

    Today, 27 June, Thursday

    Time Temperature Precipitation Wind Pressure Humidity
    00:00 +25°C° 0 mm 2 mps 756 mmHg 81%
    01:00 +24°C° 0 mm 2 mps 756 mmHg 87%
    02:00 +24°C° 0 mm 2 mps 755 mmHg 87%
    03:00 +24°C° 0 mm 2 mps 755 mmHg 88%
    04:00 +23°C° 0 mm 2 mps 754 mmHg 89%
    05:00 +25°C° 0 mm 3 mps 754 mmHg 86%
    06:00 +26°C° 0 mm 3 mps 754 mmHg 84%
    07:00 +27°C° 0 mm 4 mps 754 mmHg 81%
    08:00 +29°C° 0 mm 4 mps 754 mmHg 78%
    09:00 +30°C° 0 mm 4 mps 754 mmHg 74%
    10:00 +32°C° 0 mm 4 mps 754 mmHg 70%
    11:00 +33°C° 0.1 mm 4 mps 753 mmHg 68%
    12:00 +34°C° 0.1 mm 4 mps 753 mmHg 66%
    13:00 +35°C° 0.1 mm 4 mps 752 mmHg 63%
    14:00 +35°C° 0.4 mm 5 mps 752 mmHg 64%
    15:00 +34°C° 0.4 mm 5 mps 752 mmHg 65%
    16:00 +34°C° 0.4 mm 6 mps 751 mmHg 65%
    17:00 +32°C° 0 mm 5 mps 751 mmHg 68%
    18:00 +29°C° 0 mm 5 mps 751 mmHg 70%
    19:00 +27°C° 0 mm 5 mps 751 mmHg 73%
    20:00 +26°C° 0 mm 5 mps 752 mmHg 71%
    21:00 +25°C° 0 mm 5 mps 752 mmHg 68%
    22:00 +23°C° 0 mm 6 mps 753 mmHg 66%
    23:00 +22°C° 0 mm 5 mps 753 mmHg 63%

    Tomorrow, 28 June, Friday

    Time Temperature Precipitation Wind Pressure Humidity
    00:00 +20°C° 0 mm 4 mps 754 mmHg 61%
    01:00 +19°C° 0 mm 4 mps 754 mmHg 58%
    02:00 +18°C° 0 mm 4 mps 754 mmHg 61%
    03:00 +18°C° 0 mm 4 mps 754 mmHg 64%
    04:00 +17°C° 0 mm 3 mps 754 mmHg 68%
    05:00 +18°C° 0 mm 4 mps 754 mmHg 68%
    06:00 +19°C° 0 mm 4 mps 755 mmHg 69%
    07:00 +20°C° 0 mm 4 mps 755 mmHg 70%
    08:00 +21°C° 0 mm 5 mps 755 mmHg 66%
    09:00 +22°C° 0 mm 5 mps 755 mmHg 63%
    10:00 +25°C° 0 mm 5 mps 755 mmHg 59%
    11:00 +25°C° 0 mm 5 mps 755 mmHg 58%
    12:00 +25°C° 0 mm 5 mps 755 mmHg 57%
    13:00 +26°C° 0 mm 5 mps 755 mmHg 56%
    14:00 +26°C° 0 mm 5 mps 755 mmHg 57%
    15:00 +26°C° 0 mm 5 mps 754 mmHg 58%
    16:00 +26°C° 0 mm 5 mps 754 mmHg 59%
    17:00 +23°C° 0 mm 4 mps 754 mmHg 65%
    18:00 +22°C° 0 mm 3 mps 755 mmHg 71%
    19:00 +21°C° 0 mm 3 mps 755 mmHg 77%
    20:00 +20°C° 0 mm 3 mps 755 mmHg 78%
    21:00 +19°C° 0 mm 3 mps 755 mmHg 79%
    22:00 +18°C° 0 mm 2 mps 755 mmHg 80%
    23:00 +18°C° 0 mm 2 mps 755 mmHg 81%

    Day after tomorrow, 29 June, Saturday

    Time Temperature Precipitation Wind Pressure Humidity
    00:00 +17°C° 0 mm 2 mps 755 mmHg 82%
    01:00 +16°C° 0 mm 1 mps 755 mmHg 83%
    02:00 +16°C° 0 mm 1 mps 755 mmHg 84%
    03:00 +16°C° 0 mm 1 mps 755 mmHg 85%
    04:00 +15°C° 0 mm 1 mps 756 mmHg 87%
    05:00 +18°C° 0 mm 1 mps 756 mmHg 82%
    06:00 +19°C° 0 mm 1 mps 756 mmHg 78%
    07:00 +19°C° 0 mm 2 mps 756 mmHg 74%
    08:00 +21°C° 0 mm 2 mps 756 mmHg 70%
    09:00 +23°C° 0 mm 2 mps 756 mmHg 65%
    10:00 +25°C° 0 mm 2 mps 756 mmHg 61%
    11:00 +26°C° 0 mm 2 mps 756 mmHg 57%
    12:00 +27°C° 0 mm 2 mps 756 mmHg 53%
    13:00 +27°C° 0 mm 2 mps 756 mmHg 50%
    14:00 +27°C° 0 mm 2 mps 756 mmHg 50%
    15:00 +27°C° 0 mm 2 mps 755 mmHg 49%
    16:00 +27°C° 0 mm 2 mps 755 mmHg 49%
    17:00 +26°C° 0 mm 1 mps 755 mmHg 55%
    18:00 +25°C° 0 mm 1 mps 755 mmHg 61%
    19:00 +24°C° 0 mm 1 mps 755 mmHg 67%
    20:00 +23°C° 0 mm 2 mps 755 mmHg 69%
    21:00 +20°C° 0 mm 2 mps 756 mmHg 71%
    22:00 +19°C° 0 mm 3 mps 756 mmHg 73%
    23:00 +18°C° 0 mm 2 mps 756 mmHg 74%

    30 June, Sunday

    Time Temperature Precipitation Wind Pressure Humidity
    00:00 +18°C° 0 mm 2 mps 756 mmHg 74%
    01:00 +17°C° 0 mm 2 mps 756 mmHg 74%
    02:00 +17°C° 0 mm 2 mps 756 mmHg 75%
    03:00 +16°C° 0 mm 2 mps 756 mmHg 75%
    04:00 +16°C° 0 mm 1 mps 756 mmHg 76%
    05:00 +19°C° 0 mm 1 mps 756 mmHg 73%
    06:00 +19°C° 0 mm 2 mps 756 mmHg 71%
    07:00 +21°C° 0 mm 2 mps 756 mmHg 68%
    08:00 +23°C° 0 mm 2 mps 756 mmHg 66%
    09:00 +25°C° 0 mm 2 mps 756 mmHg 63%
    10:00 +26°C° 0 mm 2 mps 756 mmHg 61%
    11:00 +27°C° 0 mm 3 mps 756 mmHg 59%
    12:00 +28°C° 0 mm 3 mps 756 mmHg 57%
    13:00 +29°C° 0 mm 3 mps 756 mmHg 55%
    14:00 +28°C° 0 mm 3 mps 755 mmHg 57%
    15:00 +28°C° 0 mm 3 mps 755 mmHg 58%
    16:00 +28°C° 0 mm 3 mps 755 mmHg 59%
    17:00 +27°C° 0 mm 3 mps 755 mmHg 64%
    18:00 +26°C° 0 mm 3 mps 755 mmHg 70%
    19:00 +24°C° 0 mm 2 mps 754 mmHg 75%
    20:00 +23°C° 0 mm 2 mps 755 mmHg 76%
    21:00 +21°C° 0 mm 2 mps 755 mmHg 77%
    22:00 +20°C° 0 mm 2 mps 755 mmHg 78%
    23:00 +20°C° 0 mm 2 mps 755 mmHg 79%

    1 July, Monday

    Time Temperature Precipitation Wind Pressure Humidity
    00:00 +19°C° 0 mm 2 mps 755 mmHg 80%
    01:00 +19°C° 0 mm 2 mps 754 mmHg 81%
    02:00 +18°C° 0 mm 2 mps 754 mmHg 82%
    03:00 +18°C° 0 mm 2 mps 754 mmHg 83%
    04:00 +18°C° 0 mm 1 mps 754 mmHg 83%
    05:00 +19°C° 0 mm 2 mps 754 mmHg 79%
    06:00 +20°C° 0 mm 2 mps 754 mmHg 75%
    07:00 +22°C° 0 mm 3 mps 754 mmHg 71%
    08:00 +24°C° 0 mm 3 mps 754 mmHg 66%
    09:00 +26°C° 0 mm 3 mps 754 mmHg 61%
    10:00 +28°C° 0 mm 3 mps 754 mmHg 56%
    11:00 +29°C° 0 mm 3 mps 753 mmHg 53%
    12:00 +29°C° 0 mm 3 mps 753 mmHg 51%
    13:00 +30°C° 0 mm 3 mps 753 mmHg 49%
    14:00 +30°C° 0 mm 3 mps 752 mmHg 50%
    15:00 +30°C° 0 mm 3 mps 752 mmHg 51%
    16:00 +30°C° 0 mm 3 mps 752 mmHg 53%
    17:00 +29°C° 0 mm 3 mps 751 mmHg 59%
    18:00 +27°C° 0 mm 2 mps 751 mmHg 65%
    19:00 +26°C° 0 mm 2 mps 751 mmHg 71%
    20:00 +25°C° 0 mm 2 mps 751 mmHg 73%
    21:00 +24°C° 0 mm 2 mps 751 mmHg 75%
    22:00 +23°C° 0 mm 2 mps 751 mmHg 77%
    23:00 +22°C° 0 mm 1 mps 751 mmHg 79%

    2 July, Tuesday

    Time Temperature Precipitation Wind Pressure Humidity
    00:00 +21°C° 0 mm 1 mps 751 mmHg 82%
    01:00 +19°C° 0 mm 0 mps 751 mmHg 84%
    02:00 +19°C° 0 mm 0 mps 751 mmHg 84%
    03:00 +19°C° 0 mm 0 mps 751 mmHg 85%
    04:00 +18°C° 0 mm 0 mps 751 mmHg 85%
    05:00 +22°C° 0 mm 1 mps 751 mmHg 81%
    06:00 +24°C° 0 mm 1 mps 751 mmHg 78%
    07:00 +25°C° 0 mm 2 mps 751 mmHg 74%
    08:00 +27°C° 0 mm 2 mps 751 mmHg 70%
    09:00 +28°C° 0 mm 2 mps 751 mmHg 67%
    10:00 +30°C° 0 mm 3 mps 751 mmHg 63%
    11:00 +31°C° 0 mm 3 mps 751 mmHg 61%
    12:00 +32°C° 0 mm 4 mps 751 mmHg 58%
    13:00 +33°C° 0 mm 4 mps 751 mmHg 56%
    14:00 +33°C° 0 mm 4 mps 751 mmHg 57%
    15:00 +32°C° 0 mm 5 mps 751 mmHg 57%
    16:00 +32°C° 0 mm 5 mps 750 mmHg 57%
    17:00 +29°C° 0 mm 5 mps 751 mmHg 63%
    18:00 +27°C° 0 mm 5 mps 751 mmHg 68%
    19:00 +25°C° 0 mm 5 mps 751 mmHg 73%
    20:00 +25°C° 0 mm 4 mps 751 mmHg 72%
    21:00 +24°C° 0 mm 3 mps 751 mmHg 71%
    22:00 +24°C° 0 mm 2 mps 752 mmHg 70%
    23:00 +23°C° 0 mm 2 mps 752 mmHg 71%
    Show more